Regional Weather Roundup
Issued by NWS

Home | Current Version | Previous Version | Graphics & Text | Print | Product List | Glossary On
Versions: 1 2 3 4 5 6 7 8 9 10 11 12 13 14 15 16 17 18 19 20 21 22 23 24 25 26 27 28 29 30 31 32 33 34 35 36 37 38 39 40 41 42 43 44 45 46 47 48 49 50
000
ASUS43 KTOP 221459
RWRKS

WEATHER ROUNDUP FOR KANSAS
NATIONAL WEATHER SERVICE GOODLAND KS
1000 AM CDT FRI AUG 22 2014

NOTE:  "FAIR" INDICATES FEW OR NO CLOUDS BELOW 12,000 FEET WITH NO
SIGNIFICANT WEATHER AND/OR OBSTRUCTIONS TO VISIBILITY.

KSZ001>006-013>018-027>032-041>047-221600-
NORTHWEST KANSAS

CITY           SKY/WX    TMP DP  RH WIND       PRES   REMARKS
GOODLAND       SUNNY     77  57  50 N15G24    30.04R
HAYS           PTSUNNY   79  66  65 N6        29.93R
HILL CITY      MOSUNNY   80  68  66 NW10      29.98R
RUSSELL        PTSUNNY   82  67  60 CALM      29.92R
$$

KSZ061>065-074>080-084>089-221600-
SOUTHWEST KANSAS

CITY           SKY/WX    TMP DP  RH WIND       PRES   REMARKS
DODGE CITY     SUNNY     83  63  50 SW15      29.95F
ELKHART          N/A     80  57  45 SW12        N/A
GARDEN CITY    MOSUNNY   81  45  28 SW12      29.96S
GREAT BEND     MOSUNNY   88  66  48 SW16      29.91S
LIBERAL        MOSUNNY   84  61  45 SW20G26   29.99F
$$

KSZ066>073-081>083-090>101-221600-
SOUTHEAST KANSAS

CITY           SKY/WX    TMP DP  RH WIND       PRES   REMARKS
CHANUTE        SUNNY     87  67  51 S16G23    29.97R
COFFEYVILLE    MOSUNNY   86  70  58 S17       29.96F
HUTCHINSON     SUNNY     87  65  47 S14       29.92S
NEWTON         SUNNY     84  63  48 SW20      29.96S
PARSONS        SUNNY     85  69  58 S12       29.98S
WICHITA INTL   SUNNY     86  65  49 S16G23    29.93S
WICHITA JABRA  SUNNY     85  66  53 S16       29.93F
WINFIELD       SUNNY     86  67  52 S15       29.96S
$$

KSZ007>012-019>026-033>040-048>060-102>105-221600-
NORTHEAST KANSAS

CITY           SKY/WX    TMP DP  RH WIND       PRES   REMARKS
CONCORDIA      CLOUDY    76  73  91 E6        29.90R
EMPORIA        SUNNY     86  68  54 S16       29.92S
LAWRENCE       MOSUNNY   88  72  58 CALM      29.95S
MANHATTAN      PTSUNNY   78  73  84 E6        29.93R THUNDER
OLATHE IND     MOSUNNY   85  69  58 SW9       29.98R
OLATHE EXE     PTSUNNY   83  71  67 VRB6      29.97R
SALINA         MOSUNNY   88  69  53 S12       29.91R
TOPEKA BILLARD PTSUNNY   86  72  62 VRB3      29.95S
TOPEKA FORBES  MOSUNNY   86  68  54 CALM      29.96R
$$



USA.gov is the U.S. government's official web portal to all federal, state and local government web resources and services.